This demonstration page uses our WeatherBlox Daily Observations layout. Learn more.

Left ArrowRight Arrow

Hourly Observations for August 27, 2022

Temp ( °F °C ) Dew Point ( °F °C ) Humidity (%) Winds ( mph kmh ) Pressure ( in mb ) Visibility ( mi km ) Precip ( " mm )
12:52 am 00:52 Clear 72 22.2 68 20 87 87 SSE 6 9 29.98 1015 10 16 0.00 0.00
1:52 am 01:52 Clear 71 21.7 67 19.4 87 87 SSE 7 11 29.97 1015 10 16 0.00 0.00
2:52 am 02:52 Clear 70 21.1 67 19.4 90 90 Calm 29.96 1015 10 16 0.00 0.00
3:52 am 03:52 Clear 70 21.1 66 18.9 87 87 S 3 6 29.97 1015 10 16 0.00 0.00
4:52 am 04:52 Clear 69 20.6 66 18.9 90 90 S 3 6 29.96 1015 10 16 0.00 0.00
5:52 am 05:52 Clear 69 20.6 66 18.9 90 90 Calm 29.97 1015 10 16 0.00 0.00
6:52 am 06:52 Sunny 69 20.6 66 18.9 90 90 SSE 6 9 29.98 1015 10 16 0.00 0.00
7:52 am 07:52 Sunny 71 21.7 68 20 90 90 SSE 5 7 29.99 1016 10 16 0.00 0.00
8:52 am 08:52 Sunny 75 23.9 69 20.6 82 82 S 7 11 29.98 1015 10 16 0.00 0.00
9:52 am 09:52 Sunny 79 26.1 71 21.7 77 77 S 9 15 29.98 1015 10 16 0.00 0.00
10:52 am 10:52 Sunny 83 28.3 70 21.1 65 65 SSW 10 17 29.96 1015 10 16 0.00 0.00
11:52 am 11:52 Mostly Sunny 85 29.4 68 20 57 57 S 13 20 29.95 1014 10 16 0.00 0.00
12:52 pm 12:52 Mostly Sunny 86 30 69 20.6 57 57 SSE 9 15 29.93 1014 10 16 0.00 0.00
1:52 pm 13:52 Mostly Sunny 88 31.1 67 19.4 50 50 S 9 15 29.90 1013 10 16 0.00 0.00
2:52 pm 14:52 Mostly Sunny 89 31.7 66 18.9 47 47 S 10 17 29.88 1012 10 16 0.00 0.00
3:52 pm 15:52 Sunny 89 31.7 66 18.9 47 47 S 10 17 29.85 1011 10 16 0.00 0.00
4:52 pm 16:52 Mostly Sunny 88 31.1 66 18.9 48 48 SSE 7 11 29.83 1010 10 16 0.00 0.00
5:52 pm 17:52 Mostly Sunny 88 31.1 64 17.8 45 45 SSE 10 17 29.82 1010 10 16 0.00 0.00
6:52 pm 18:52 Sunny 85 29.4 65 18.3 51 51 SE 8 13 29.81 1009 10 16 0.00 0.00
7:52 pm 19:52 Clear 83 28.3 65 18.3 55 55 SSE 9 15 29.80 1009 10 16 0.00 0.00
8:52 pm 20:52 Clear 81 27.2 66 18.9 61 61 SE 10 17 29.83 1010 10 16 0.00 0.00
9:52 pm 21:52 Clear 80 26.7 67 19.4 64 64 SSE 10 17 29.83 1010 10 16 0.00 0.00
10:52 pm 22:52 Clear 78 25.6 68 20 71 71 SSE 14 22 29.83 1010 10 16 0.00 0.00
11:52 pm 23:52 Clear 77 25 69 20.6 77 77 SSE 14 22 29.83 1010 10 16 0.00 0.00

Powered by AerisWeather